BAW479 LEBL-EGLL

Flight info

Callsign BAW479
Flight time N/A
Altitude 34000
Route NATPI2Z NATPI DCT EVNAM DCT AGN DCT SECHE DCT UVELI DCT CNA DCT MANAK DCT EPAPU DCT RINSO DCT EKRAS DCT REVTU DCT BOLRO UP87 ROXOG ROXOG1H
Aircraft A319/M-SDE3FGIJ1KRWXY/LB1

Departure

Time N/A
Airport Josep Tarradellas Barcelona-El Prat Airport (LEBL)

Arrival

Time 2026-04-30 17:59
Airport London Heathrow Airport (EGLL)
Time Latitude Longitude Altitude Speed Heading
2026-04-30 17:39 50.70776 -1.28302 22177 ft 364 kts 33°
2026-04-30 17:41 50.87430 -1.12335 17105 ft 336 kts 38°
2026-04-30 17:42 50.91268 -1.08245 15892 ft 329 kts 38°
2026-04-30 17:42 50.96906 -1.02280 14187 ft 320 kts 38°
2026-04-30 17:43 51.00533 -0.98299 12985 ft 311 kts 46°
2026-04-30 17:44 51.04795 -0.90867 11891 ft 304 kts 52°
2026-04-30 17:44 51.09021 -0.83358 10834 ft 300 kts 52°
2026-04-30 17:46 51.15872 -0.71109 9115 ft 292 kts 52°
2026-04-30 17:47 51.20627 -0.62551 7896 ft 287 kts 52°
2026-04-30 17:48 51.25882 -0.53056 7162 ft 284 kts 52°
2026-04-30 17:48 51.30670 -0.47738 7191 ft 295 kts
2026-04-30 17:49 51.35677 -0.56267 6786 ft 287 kts 276°
2026-04-30 17:50 51.37025 -0.68693 5457 ft 281 kts 276°
2026-04-30 17:51 51.38018 -0.77635 4941 ft 260 kts 277°
2026-04-30 17:52 51.41851 -0.82572 4081 ft 252 kts 358°
2026-04-30 17:53 51.47593 -0.77551 3047 ft 189 kts 94°
2026-04-30 17:54 51.47642 -0.69687 2689 ft 171 kts 94°
2026-04-30 17:55 51.47685 -0.62095 1788 ft 167 kts 92°
2026-04-30 17:56 51.47720 -0.55305 967 ft 125 kts 92°
2026-04-30 17:57 51.47736 -0.51624 520 ft 126 kts 89°
2026-04-30 17:58 51.47750 -0.47547 87 ft 104 kts 89°
2026-04-30 17:59 51.47591 -0.46127 87 ft 15 kts 270°
2026-04-30 18:00 51.47588 -0.46928 87 ft 21 kts 265°
2026-04-30 18:00 51.47581 -0.47707 87 ft 26 kts 269°
2026-04-30 18:01 51.47577 -0.48276 87 ft 24 kts 269°
2026-04-30 18:02 51.47263 -0.48475 87 ft 19 kts 180°
2026-04-30 18:02 51.46886 -0.48492 89 ft 16 kts 221°
2026-04-30 18:03 51.46886 -0.48791 88 ft 1 kts 334°
2026-04-30 18:04 51.46927 -0.48790 87 ft 0 kts 359°